Вернуться в каталог

STARLINK-32753

АктивенСвязьVLEO
NORAD 62481·PAYLOAD·🇺🇸 United States

Запущен Dec 31, 2024 с Cape Canaveral Space Force Station

Loading…

Ближайшие Пролёты (ближайшие 24 часа)

TLE

СвежийSource: CelesTrak SupGP

Эпоха: Sep 14, 2026, 21:30 UTC

1 62481C 24254V   26257.89631944  .00040951  00000+0  14833-2 0  2570
2 62481  43.0037  27.5500 0001747 275.5303  57.0830 15.27555621    16

Отслеживайте STARLINK-32753 в реальном времени с AllMySat

Download on the App Store